Flag Weather past 2 weeks in Harare, Zimbabwe

Now
64 °F

Clear.


Feels Like: 64 °F
Forecast: 59 / 85 °F
Wind: 7 mph from East

Location: Harare Kutsaga Airport

Current Time: Oct 31, 2014 at 1:06:56 AM

Latest Report: Oct 31, 2014 at 12:00 AM


Visibility: 10 mi

Pressure: 30.12 "Hg

Humidity: 49%

Dew point: 45 °F

Location of HarareLocation

Historic Weather in Harare — Graph

°F

Harare temperature yesterday

Maximum temperature yesterday: 84 °F (at 1:00 PM)
Minimum temperature yesterday: 55 °F (at 3:00 AM)
Average temperature yesterday: 74 °F

Past Weeks' High & Low Weather Summary

 TemperatureHumidityPressure
High88 °F (Oct 16, 1:00 PM)100% (Oct 28, 5:00 AM)30.33 "Hg (Oct 28, 5:00 AM)
Low52 °F (Oct 18, 6:00 AM)11% (Oct 17, 5:00 PM)29.92 "Hg (Oct 16, 3:00 PM)
Average71 °F50%30.16 "Hg
* Reported Midnight between Oct 15 and Oct 16 — Midnight between Oct 30 and Oct 31, Harare, Weather by CustomWeather, © 2014

Note: Actual official high and low records may vary slightly from our data, if they occured in-between our weather recording intervals... More about our weather records

Advertising

Harare weather history for previous 24 hours

 ConditionsComfort  
Time TempWeatherWind HumidityBarometerVisibility
12:00 AM
Oct 31
64 °FClear.7 mph49%30.12 "Hg10 mi
11:00 PM
Oct 30
66 °FClear.8 mph46%30.12 "Hg10 mi
10:00 PM66 °FPassing clouds.7 mph49%30.12 "HgN/A
9:00 PM70 °FClear.7 mph40%30.12 "Hg10 mi
8:00 PM70 °FClear.7 mph38%30.09 "Hg10 mi
6:00 PM81 °FSunny.9 mph26%30.07 "Hg10 mi
5:00 PM84 °FPassing clouds.3 mph25%30.07 "HgN/A
4:00 PM84 °FPassing clouds.6 mph25%30.07 "HgN/A
3:00 PM82 °FPassing clouds.7 mph26%30.07 "HgN/A
2:00 PM84 °FSunny.6 mph25%30.09 "Hg10 mi
1:00 PM84 °FPassing clouds.7 mph27%30.12 "HgN/A
12:00 PM81 °FPassing clouds.6 mph28%30.15 "HgN/A
11:00 AM79 °FPassing clouds.8 mph37%30.18 "HgN/A
10:00 AM77 °FPassing clouds.12 mph39%30.18 "HgN/A
9:00 AM73 °FPassing clouds.13 mph44%30.21 "HgN/A
8:00 AM72 °FSunny.12 mph50%30.21 "Hg10 mi
7:00 AM66 °FSunny.10 mph60%30.18 "Hg10 mi
5:00 AM57 °FClear.6 mph77%30.15 "Hg10 mi
3:00 AM55 °FClear.3 mph82%30.12 "Hg10 mi
Weather by CustomWeather, © 2014

See weather overviewHow to use our weather pages